+ View the NASA Portal
+ Center for Near-Earth Object Studies
IMPORTANT:
The SSD Announcement email list is now available. Major changes are coming in the near future, including possible hostname and/or URL changes. To be notified of such changes, subscribe to this email list.
Please visit
this page
for more details.
Don't show this message again
JPL Small-Body Database Browser
Search:
[
help
]
452138 (2015 PV310)
Classification:
Main-belt Asteroid
SPK-ID:
2452138
[
Ephemeris
|
Orbit Diagram
|
Orbital Elements
|
Mission Design
|
Physical Parameters
|
Discovery Circumstances
]
[ show orbit diagram ]
Orbital Elements at Epoch 2458600.5 (2019-Apr-27.0) TDB
Reference:
JPL 9
(heliocentric ecliptic J2000)
Element
Value
Uncertainty (1-sigma)
Units
e
.1679062064574773
8.3226e-08
a
2.797859047095697
5.2457e-08
au
q
2.328081148295126
2.4503e-07
au
i
14.69185632120213
8.9949e-06
deg
node
103.9738763479129
3.9479e-05
deg
peri
233.2506939711619
5.0379e-05
deg
M
291.0361465658272
2.993e-05
deg
t
p
2458927.958443730957
(2020-Mar-19.45844373)
0.00014168
TDB
period
1709.374315280511
4.68
4.8074e-05
1.316e-07
d
yr
n
.2106033750372126
5.9229e-09
deg/d
Q
3.267636945896267
6.1265e-08
au
Orbit Determination Parameters
# obs. used (total)
153
data-arc span
7005 days (19.18 yr)
first obs. used
2000-05-05
last obs. used
2019-07-10
planetary ephem.
DE431
SB-pert. ephem.
SB431-N16
condition code
0
norm. resid. RMS
.53103
source
ORB
producer
Otto Matic
solution date
2019-Sep-24 07:56:34
Additional Information
Earth MOID
= 1.34756 au
Jupiter MOID
= 2.14051 au
T_jup
= 3.258
[ show covariance matrix ]
[
Ephemeris
|
Orbit Diagram
|
Orbital Elements
|
Mission Design
|
Physical Parameters
|
Discovery Circumstances
]
Physical Parameter Table
Parameter
Symbol
Value
Units
Sigma
Reference
Notes
absolute magnitude
H
16.2
n/a
MPO446794
452138 (2015 PV310)
Discovered 2000-May-05 by Spacewatch at Kitt Peak
Reference:
Last Updated:
2015-11-30
Alternate Designations
2015 PV310
= 2000 JL67 = 2011 YU26 = 2014 JH58
[
Ephemeris
|
Orbit Diagram
|
Orbital Elements
|
Mission Design
|
Physical Parameters
|
Discovery Circumstances
]
2019-Dec-08 05:37 UT
(server date/time)
Site Manager:
Ryan S. Park
Webmaster
:
Alan B. Chamberlin